This is the latest recevied weather packets stored in our database for station/object W3JGB. If no packets are shown the sender has not sent any weather packets the latest 10 day(s).
| Time | Temp. | Humidity | Pressure | Rain* | Wind** | Luminosity | Snow |
|---|---|---|---|---|---|---|---|
| 1778192268 | 16.67° C | 38% | 1007.7 hPa | 0 mm | - | 148 W/m² | - |
| 1778191964 | 16.67° C | 41% | 1007.7 hPa | 0 mm | - | 113 W/m² | - |
| 1778191660 | 17.22° C | 37% | 1007.5 hPa | 0 mm | - | 138 W/m² | - |
| 1778191359 | 16.67° C | 39% | 1007.4 hPa | 0 mm | - | 275 W/m² | - |
| 1778191054 | 16.67° C | 39% | 1007.5 hPa | 0 mm | - | 131 W/m² | - |
| 1778190752 | 16.67° C | 38% | 1007.5 hPa | 0 mm | - | 117 W/m² | - |
| 1778190449 | 16.67° C | 40% | 1007.6 hPa | 0 mm | - | 290 W/m² | - |
| 1778190147 | 16.67° C | 39% | 1007.5 hPa | 0 mm | - | 92 W/m² | - |
| 1778189842 | 16.67° C | 42% | 1007.5 hPa | 0 mm | - | 99 W/m² | - |
| 1778189539 | 16.67° C | 40% | 1007.6 hPa | 0 mm | - | 130 W/m² | - |
| 1778189235 | 16.67° C | 39% | 1007.3 hPa | 0 mm | - | 140 W/m² | - |
| 1778188932 | 16.67° C | 39% | 1007.6 hPa | 0 mm | - | 122 W/m² | - |
| 1778188629 | 16.67° C | 38% | 1007.5 hPa | 0 mm | - | 134 W/m² | - |
| 1778188324 | 16.67° C | 38% | 1007.6 hPa | 0 mm | - | 119 W/m² | - |
| 1778188022 | 16.67° C | 39% | 1007.5 hPa | 0 mm | - | 124 W/m² | - |
| 1778187718 | 17.78° C | 41% | 1007.3 hPa | 0 mm | - | 162 W/m² | - |
| 1778187415 | 16.67° C | 41% | 1007.4 hPa | 0 mm | - | 276 W/m² | - |
| 1778187112 | 16.11° C | 40% | 1007.6 hPa | 0 mm | - | 113 W/m² | - |
| 1778186808 | 16.67° C | 38% | 1007.6 hPa | 0 mm | - | 132 W/m² | - |
| 1778186506 | 17.22° C | 39% | 1007.7 hPa | 0 mm | - | 147 W/m² | - |
| 1778186204 | 17.22° C | 38% | 1007.7 hPa | 0 mm | - | 157 W/m² | - |
| 1778185901 | 16.67° C | 39% | 1007.6 hPa | 0 mm | - | 133 W/m² | - |
| 1778185596 | 16.67° C | 39% | 1007.7 hPa | 0 mm | - | 159 W/m² | - |
| 1778185293 | 16.67° C | 41% | 1007.7 hPa | 0 mm | - | 143 W/m² | - |
| 1778184988 | 16.67° C | 40% | 1007.4 hPa | 0 mm | - | 147 W/m² | - |
* Rain latest hour (hover to see other rain measurements)
** Current wind speed in m/s (hover to see current wind gust speed)